FW2867 Weather Reports


time (UTC)temp
F
wind
direction
speed
knots
gust
knots
rain 1hr
in
rain 24hr
in
rain mn
in
humidity
%
barometer
mb
20260504040006 60 298 8.7 19.1 0.00 0.00 0.00 49 994.6
20260504034501 64 319 0.9 4.3 0.00 0.00 0.00 29 993.9
20260504033005 65 317 0.0 5.2 0.00 0.00 0.00 27 993.7
20260504031501 66 322 0.0 7.0 0.00 0.00 0.00 25 993.7
20260504030059 66 305 5.2 10.4 0.00 0.00 0.00 25 994.3
20260504024601 64 314 2.6 5.2 0.00 0.00 0.00 27 994.6
20260504023058 64 339 0.0 0.0 0.00 0.00 0.00 25 994.5
20260504021556 66 339 0.0 0.0 0.00 0.00 0.00 23 994.2
20260504020056 67 339 0.0 2.6 0.00 0.00 0.00 22 994.3
20260504014553 68 338 0.9 4.3 0.00 0.00 0.00 21 994.7
20260504013104 69 13 0.9 3.5 0.00 0.00 0.00 19 995.0
20260504011551 70 211 0.9 5.2 0.00 0.00 0.00 18 995.1
20260504010049 71 279 1.7 5.2 0.00 0.00 0.00 18 995.3
20260504004600 71 194 1.7 6.1 0.00 0.00 0.00 17 995.7
20260504003046 72 178 0.9 8.7 0.00 0.00 0.00 17 996.0
20260504001547 73 244 1.7 10.4 0.00 0.00 0.00 15 996.2
20260504000044 73 251 1.7 11.3 0.00 0.00 0.00 16 996.5
20260503234541 73 276 2.6 20.0 0.00 0.00 0.00 16 996.9
20260503233040 73 213 2.6 14.8 0.00 0.00 0.00 15 997.1
20260503231540 73 267 3.5 10.4 0.00 0.00 0.00 15 997.4
20260503230037 73 251 3.5 11.3 0.00 0.00 0.00 14 997.8
20260503224535 73 226 1.7 9.6 0.00 0.00 0.00 14 998.0
20260503223033 74 286 4.3 12.2 0.00 0.00 0.00 13 998.1
20260503221536 75 196 4.3 18.2 0.00 0.00 0.00 14 998.3
20260503220034 73 253 4.3 13.9 0.00 0.00 0.00 14 999.0
20260503214527 74 253 5.2 20.0 0.00 0.00 0.00 14 999.4
20260503213029 74 184 2.6 13.0 0.00 0.00 0.00 16 999.7
20260503211535 73 249 4.3 12.2 0.00 0.00 0.00 17 1000.2
20260503210021 73 223 3.5 11.3 0.00 0.00 0.00 16 1000.8
20260503204519 72 222 2.6 8.7 0.00 0.00 0.00 18 1001.6
20260503203020 71 260 2.6 9.6 0.00 0.00 0.00 18 1002.4
20260503201516 72 252 5.2 10.4 0.00 0.00 0.00 17 1002.7
20260503200012 75 250 3.5 10.4 0.00 0.00 0.00 17 1003.1
20260503194508 72 336 2.6 13.9 0.00 0.00 0.00 19 1003.4
20260503193023 73 246 5.2 13.9 0.00 0.00 0.00 17 1003.9
20260503191504 72 319 3.5 10.4 0.00 0.00 0.00 19 1004.1
20260503190004 72 186 3.5 7.8 0.00 0.00 0.00 18 1004.2
20260503184609 71 204 4.3 11.3 0.00 0.00 0.00 19 1004.6
20260503183058 71 299 3.5 10.4 0.00 0.00 0.00 20 1005.2
20260503181556 70 214 6.1 16.5 0.00 0.00 0.00 20 1006.0
20260503180052 70 283 1.7 11.3 0.00 0.00 0.00 20 1006.4
20260503174603 68 182 1.7 7.8 0.00 0.00 0.00 21 1006.8
20260503173049 66 224 3.5 11.3 0.00 0.00 0.00 21 1007.2
20260503171543 66 244 2.6 9.6 0.00 0.00 0.00 22 1007.7
20260503081544 42 5 2.6 7.0 0.00 0.00 0.00 46 1010.8
20260503071538 42 344 4.3 8.7 0.00 0.00 0.00 44 1010.7
20260503054526 48 307 3.5 7.8 0.00 0.00 0.00 42 1010.4
20260503053012 49 355 3.5 9.6 0.00 0.00 0.00 42 1010.4
20260503051511 50 355 4.3 11.3 0.00 0.00 0.00 42 1010.3
20260503050011 50 325 3.5 9.6 0.00 0.00 0.00 43 1010.4
20260503044513 51 294 5.2 9.6 0.00 0.00 0.00 44 1010.4
20260503043010 52 326 3.5 13.0 0.00 0.00 0.00 43 1010.4
20260503041509 52 347 5.2 13.0 0.00 0.00 0.00 43 1010.3